Rogers, AR

6:15 PM CDT on July 24, 2017 (GMT -0500)
Rogers Municipal-Carter

Weather History for KROG - January, 2012

Change the Weather History Date:

Wednesday, January 18, 2012

  Actual Average Record
Temperature  
Mean Temperature 29 °F -  
Max Temperature 42 °F 43 °F 62 °F (2006)
Min Temperature 16 °F 26 °F 6 °F (1997)
Degree Days  
Heating Degree Days 36    
Moisture  
Dew Point 17 °F    
Average Humidity 60    
Maximum Humidity 86    
Minimum Humidity 33    
Precipitation  
Precipitation 0.00 in - - ()
Sea Level Pressure  
Sea Level Pressure 30.31 in    
Wind  
Wind Speed 6 mph (SSE)    
Max Wind Speed 14 mph    
Max Gust Speed 17 mph    
Visibility 10 miles    
Events      
Averages and records for this station are not official NWS values.
T = Trace of Precipitation, MM = Missing Value Source: NWS Daily Summary

Daily Weather History Graph

Daily Weather History Graph

Search for Another Location

Airport or City:

Trip Planner

Search our weather history database for the weather conditions in past years. The results will help you decide how hot, cold, wet, or windy it might be!

Date:

Astronomy

Jan. 18, 2012 Rise Set
Actual Time 7:26 AM CST 5:27 PM CST
Civil Twilight 6:58 AM CST 5:55 PM CST
Nautical Twilight 6:26 AM CST 6:26 PM CST
Astronomical Twilight 5:56 AM CST 6:57 PM CST
Moon 2:56 AM CST (1/18) 1:08 PM CST (1/18)
Length of Visible Light 10h 56m
Length of Day
10h 01m
Waning Crescent, 24% of the Moon is Illuminated
Jan 18
Waning Crescent
Jan 23
New
Jan 30
First Quarter
Feb 7
Full
Feb 14
Last Quarter

Hourly Weather History & Observations

Time (CST) Temp. Windchill Dew Point Humidity Pressure Visibility Wind Dir Wind Speed Gust Speed Precip Events Conditions
12:55 AM 21.2 °F 13.6 °F 15.8 °F 80% 30.43 in 10.0 mi NE 5.8 mph - N/A   Clear
1:55 AM 21.2 °F 16.4 °F 15.8 °F 80% 30.43 in 10.0 mi NE 3.5 mph - N/A   Clear
2:55 AM 19.4 °F 12.8 °F 14.0 °F 80% 30.43 in 10.0 mi ENE 4.6 mph - N/A   Clear
2:57 AM 19.0 °F 11.1 °F 15.1 °F 85% 30.36 in 10.0 mi ENE 5.8 mph - N/A   Clear
3:55 AM 19.4 °F 12.8 °F 14.0 °F 80% 30.43 in 10.0 mi East 4.6 mph - N/A   Clear
3:57 AM 19.9 °F 13.4 °F 14.0 °F 78% 30.35 in 10.0 mi East 4.6 mph - N/A   Clear
4:55 AM 19.4 °F - 14.0 °F 80% 30.43 in 10.0 mi Calm Calm - N/A   Clear
6:55 AM 17.6 °F 10.7 °F 12.2 °F 79% 30.43 in 10.0 mi ENE 4.6 mph - N/A   Clear
6:57 AM 16.0 °F 8.8 °F 12.0 °F 84% 30.35 in 10.0 mi NE 4.6 mph - N/A   Clear
7:55 AM 19.4 °F 9.5 °F 15.8 °F 86% 30.43 in 10.0 mi SSE 8.1 mph - N/A   Clear
7:57 AM 19.9 °F 11.1 °F 15.1 °F 81% 30.32 in 10.0 mi SSE 6.9 mph - N/A   Clear
8:57 AM 24.1 °F 17.0 °F 18.0 °F 77% 30.33 in 10.0 mi SE 5.8 mph - N/A   Overcast
9:55 AM 28.4 °F 21.2 °F 19.4 °F 69% 30.43 in 10.0 mi SSE 6.9 mph - N/A   Clear
9:57 AM 28.0 °F 20.8 °F 19.0 °F 69% 30.31 in 10.0 mi SE 6.9 mph - N/A   Clear
10:55 AM 32.0 °F 27.5 °F 19.4 °F 60% 30.43 in 10.0 mi SW 4.6 mph - N/A   Clear
10:57 AM 32.0 °F 28.7 °F 18.0 °F 56% 30.30 in 10.0 mi SSW 3.5 mph - N/A   Clear
11:55 AM 35.6 °F 29.9 °F 15.8 °F 44% 30.43 in 10.0 mi South 6.9 mph - N/A   Clear
11:57 AM 35.1 °F 27.9 °F 16.0 °F 46% 30.25 in 10.0 mi South 9.2 mph - N/A   Clear
12:55 PM 39.2 °F 31.6 °F 19.4 °F 45% 30.43 in 10.0 mi SW 12.7 mph - N/A   Clear
12:57 PM 39.0 °F 32.3 °F 19.0 °F 45% 30.18 in 10.0 mi SSW 10.4 mph - N/A   Clear
1:57 PM 39.9 °F 33.4 °F 19.0 °F 43% 30.16 in 10.0 mi SW 10.4 mph - N/A   Clear
2:55 PM 42.8 °F 37.0 °F 15.8 °F 34% 30.42 in 10.0 mi SW 10.4 mph - N/A   Clear
2:57 PM 42.1 °F 34.9 °F 15.1 °F 34% 30.14 in 10.0 mi SW 13.8 mph 17.3 mph N/A   Clear
3:55 PM 41.0 °F 33.5 °F 15.8 °F 36% 30.42 in 10.0 mi SW 13.8 mph - N/A   Clear
3:57 PM 41.0 °F 33.9 °F 14.0 °F 33% 30.11 in 10.0 mi SSW 12.7 mph - N/A   Clear
4:55 PM 39.2 °F 31.2 °F 14.0 °F 36% 30.42 in 10.0 mi South 13.8 mph - N/A   Clear
4:57 PM 37.9 °F 30.0 °F 14.0 °F 38% 30.09 in 10.0 mi South 12.7 mph - N/A   Clear
6:55 PM 33.8 °F 27.0 °F 17.6 °F 52% 30.42 in 10.0 mi South 8.1 mph - N/A   Clear
6:57 PM 34.0 °F 27.2 °F 17.1 °F 50% 30.09 in 10.0 mi South 8.1 mph - N/A   Clear
7:55 PM 33.8 °F 29.6 °F 15.8 °F 48% 30.42 in 10.0 mi SSE 4.6 mph - N/A   Clear
7:57 PM 33.1 °F 28.7 °F 16.0 °F 50% 30.08 in 10.0 mi SSE 4.6 mph - N/A   Clear
8:55 PM 32.0 °F 26.4 °F 17.6 °F 55% 30.42 in 10.0 mi South 5.8 mph - N/A   Clear
8:57 PM 30.9 °F 25.2 °F 18.0 °F 59% 30.06 in 10.0 mi South 5.8 mph - N/A   Clear
9:55 PM 30.2 °F 23.4 °F 17.6 °F 60% 30.42 in 10.0 mi SSE 6.9 mph - N/A   Clear
9:57 PM 30.9 °F 25.2 °F 18.0 °F 59% 30.05 in 10.0 mi SSE 5.8 mph - N/A   Clear
10:55 PM 30.2 °F 23.4 °F 19.4 °F 64% 30.42 in 10.0 mi SSE 6.9 mph - N/A   Clear
10:57 PM 30.9 °F 25.2 °F 19.0 °F 61% 30.03 in 10.0 mi SSE 5.8 mph - N/A   Clear
11:55 PM 30.2 °F 23.4 °F 19.4 °F 64% 30.42 in 10.0 mi SE 6.9 mph - N/A   Clear
11:57 PM 30.0 °F 22.4 °F 19.0 °F 64% 29.99 in 10.0 mi SE 8.1 mph - N/A   Clear